Torna al catalogo

STARLINK-35981

AttivoComunicazioniVLEO
NORAD 66598·PAYLOAD·🇺🇸 United States

Lanciato Nov 22, 2025 da Cape Canaveral Space Force Station

Loading…

Prossimi Passaggi (prossime 24 ore)

TLE

AggiornatoSource: CelesTrak SupGP

Epoca: Sep 14, 2026, 21:15 UTC

1 66598C 25270L   26257.88590278  .00033318  00000+0  12069-2 0  2573
2 66598  43.0027  67.3517 0001681 280.1017 128.7175 15.27559405    11

Traccia STARLINK-35981 in tempo reale con AllMySat

Download on the App Store